<?xml version="1.0" encoding="UTF-8" standalone="no" ?>
<gpx xmlns="http://www.topografix.com/GPX/1/1" xmlns:xsi="http://www.w3.org/2001/XMLSchema-instance" xsi:schemaLocation="http://www.topografix.com/GPX/1/1 http://www.topografix.com/GPX/1/1/gpx.xsd" version="1.1" creator="VisuGPX - https://www.visugpx.com">
  <metadata>
    <name>Sortie VTT Chartreuse</name>
    <desc><![CDATA[Essai]]></desc>
  </metadata>
  <trk>
    <name><![CDATA[Sortie VTT Chartreuse_1]]></name>
    <trkseg>
      <trkpt lat="45.35523" lon="5.78776">
        <ele>819</ele>
        <time>2008-10-25T07:08:02Z</time>
      </trkpt>
      <trkpt lat="45.35532" lon="5.78774">
        <ele>820</ele>
        <time>2008-10-25T07:08:07Z</time>
      </trkpt>
      <trkpt lat="45.35596" lon="5.78789">
        <ele>823</ele>
        <time>2008-10-25T07:08:39Z</time>
      </trkpt>
      <trkpt lat="45.35669" lon="5.78806">
        <ele>825</ele>
        <time>2008-10-25T07:09:11Z</time>
      </trkpt>
      <trkpt lat="45.35716" lon="5.78838">
        <ele>838</ele>
        <time>2008-10-25T07:09:39Z</time>
      </trkpt>
      <trkpt lat="45.35789" lon="5.78881">
        <ele>843</ele>
        <time>2008-10-25T07:10:17Z</time>
      </trkpt>
      <trkpt lat="45.35843" lon="5.78904">
        <ele>849</ele>
        <time>2008-10-25T07:10:47Z</time>
      </trkpt>
      <trkpt lat="45.35909" lon="5.78928">
        <ele>858</ele>
        <time>2008-10-25T07:11:26Z</time>
      </trkpt>
      <trkpt lat="45.35997" lon="5.78995">
        <ele>895</ele>
        <time>2008-10-25T07:12:46Z</time>
      </trkpt>
      <trkpt lat="45.36027" lon="5.79007">
        <ele>898</ele>
        <time>2008-10-25T07:13:14Z</time>
      </trkpt>
      <trkpt lat="45.36064" lon="5.79035">
        <ele>891</ele>
        <time>2008-10-25T07:13:42Z</time>
      </trkpt>
      <trkpt lat="45.36103" lon="5.79052">
        <ele>897</ele>
        <time>2008-10-25T07:14:10Z</time>
      </trkpt>
      <trkpt lat="45.36152" lon="5.79065">
        <ele>898</ele>
        <time>2008-10-25T07:14:37Z</time>
      </trkpt>
      <trkpt lat="45.36195" lon="5.79078">
        <ele>910</ele>
        <time>2008-10-25T07:15:04Z</time>
      </trkpt>
      <trkpt lat="45.36229" lon="5.79091">
        <ele>915</ele>
        <time>2008-10-25T07:15:28Z</time>
      </trkpt>
      <trkpt lat="45.36253" lon="5.79125">
        <ele>927</ele>
        <time>2008-10-25T07:15:53Z</time>
      </trkpt>
      <trkpt lat="45.36285" lon="5.79145">
        <ele>928</ele>
        <time>2008-10-25T07:16:20Z</time>
      </trkpt>
      <trkpt lat="45.36332" lon="5.79155">
        <ele>934</ele>
        <time>2008-10-25T07:16:50Z</time>
      </trkpt>
      <trkpt lat="45.36375" lon="5.79192">
        <ele>937</ele>
        <time>2008-10-25T07:17:26Z</time>
      </trkpt>
      <trkpt lat="45.36422" lon="5.7922">
        <ele>953</ele>
        <time>2008-10-25T07:18:06Z</time>
      </trkpt>
      <trkpt lat="45.36485" lon="5.79291">
        <ele>977</ele>
        <time>2008-10-25T07:19:09Z</time>
      </trkpt>
      <trkpt lat="45.36512" lon="5.79323">
        <ele>979</ele>
        <time>2008-10-25T07:19:32Z</time>
      </trkpt>
      <trkpt lat="45.3656" lon="5.79346">
        <ele>975</ele>
        <time>2008-10-25T07:20:03Z</time>
      </trkpt>
      <trkpt lat="45.36603" lon="5.79346">
        <ele>979</ele>
        <time>2008-10-25T07:20:27Z</time>
      </trkpt>
      <trkpt lat="45.36658" lon="5.79327">
        <ele>983</ele>
        <time>2008-10-25T07:21:00Z</time>
      </trkpt>
      <trkpt lat="45.36703" lon="5.79293">
        <ele>984</ele>
        <time>2008-10-25T07:21:26Z</time>
      </trkpt>
      <trkpt lat="45.36699" lon="5.79248">
        <ele>983</ele>
        <time>2008-10-25T07:21:44Z</time>
      </trkpt>
      <trkpt lat="45.3666" lon="5.79213">
        <ele>984</ele>
        <time>2008-10-25T07:22:09Z</time>
      </trkpt>
      <trkpt lat="45.36628" lon="5.79192">
        <ele>987</ele>
        <time>2008-10-25T07:22:31Z</time>
      </trkpt>
      <trkpt lat="45.36603" lon="5.79153">
        <ele>988</ele>
        <time>2008-10-25T07:22:56Z</time>
      </trkpt>
      <trkpt lat="45.36545" lon="5.79093">
        <ele>975</ele>
        <time>2008-10-25T07:23:44Z</time>
      </trkpt>
      <trkpt lat="45.36515" lon="5.79057">
        <ele>980</ele>
        <time>2008-10-25T07:24:12Z</time>
      </trkpt>
      <trkpt lat="45.36485" lon="5.79022">
        <ele>983</ele>
        <time>2008-10-25T07:24:36Z</time>
      </trkpt>
      <trkpt lat="45.36482" lon="5.7902">
        <ele>983</ele>
        <time>2008-10-25T07:24:38Z</time>
      </trkpt>
      <trkpt lat="45.36459" lon="5.78992">
        <ele>990</ele>
        <time>2008-10-25T07:25:05Z</time>
      </trkpt>
    </trkseg>
  </trk>
</gpx>